Starlink 32483

operational
NORAD ID: 61856 Int'l Des: 2024-202 Owner: SPXS Country: US Constellation: starlink
LEOCIRCULAR

Über Starlink 32483

Beschreibung wird geladen...

Live-Position

3D-Globus wird geladen...

Nächste Überflüge

Höhenverlauf

Altitude vs Time

uPlot chart will show altitude changes over time

Zweizeiliger Elementsatz

1 61856U 24202M 25350.28656218 .00005129 00000-0 19572-3 0 9993
2 61856 43.0015 348.8861 0001748 280.5234 79.5420 15.27586512 62583
Epoch: 16. Dez. 2025 • Age: 15 hours

Aktueller Status

Höhe 493.9 km
Geschwindigkeit 7.62 km/s
Subsatellitenpunkt -40.07°S, 138.26°W
Startdatum 7. Nov. 2024
Alter 1.1 years
Typ internet

Technische Details

Klassifizierung Payload
Masse 730.00 kg
Trockenmasse 700.00 kg
Gesamtmasse 730.00 kg
Länge 0.30 m
Durchmesser 4.10 m
Spannweite 29.00 m
Form Box + pan
Hersteller SPXS
Bus-Typ Starlink V2M
Phasenstatus In Orbit
Besitzer/Staat SPXS/US

Große Konstellationen

Loading constellations...